Tracking 27188 objects as of 1-Apr-2023
HD Live streaming from Space Station
objects crossing your sky now

SKYNET 2B

Track SKYNET 2B now!
SKYNET 2B is classified as:


NORAD ID: 7547
Int'l Code: 1974-094A
Perigee: 35,768.8 km
Apogee: 35,808.8 km
Inclination: 6.5 °
Period: 1,435.8 minutes
Semi major axis: 42159 km
RCS: 3.166 m2 (large)
Launch date: November 23, 1974
Source: United Kingdom (UK)
Launch site: AIR FORCE EASTERN TEST RANGE (AFETR)
Your satellite tracking list
Your tracking list is empty




NASA's NSSDC Master Catalog

Two Line Element Set (TLE):
1 07547U 74094A   23089.82026589 -.00000295  00000-0  00000-0 0  9996
2 07547   6.5218 292.8169 0004752 153.8725 176.0162  1.00289435112989
Source of the keplerian elements: AFSPC